Regional Weather Roundup
Issued by NWS

Home | Current Version | Previous Version | Graphics & Text | Print | Product List | Glossary On
Versions: 1 2 3 4 5 6 7 8 9 10 11 12 13 14 15 16 17 18 19 20 21 22 23 24 25 26 27 28 29 30 31 32 33 34 35 36 37 38 39 40 41 42 43 44 45 46 47 48 49 50
000
ASUS43 KMPX 270810
RWRMN
WEATHER ROUNDUP FOR MINNESOTA
NATIONAL WEATHER SERVICE TWIN CITIES/CHANHASSEN MN
200 AM CST SAT DEC 27 2014


NOTE: "FAIR" INDICATES FEW OR NO CLOUDS BELOW 12,000 FEET WITH NO
SIGNIFICANT WEATHER AND/OR OBSTRUCTIONS TO VISIBILITY. N/A MEANS
CURRENT SKY AND/OR WEATHER CONDITIONS ARE NOT AVAILABLE.

MNZ060>063-068>070-270900-
   Twin Cities Metro

CITY           SKY/WX    TMP DP  RH WIND       PRES   REMARKS
TWIN CITIES    LGT SNOW  27  24  89 N14       30.01F FOG     WCI  16
ST PAUL        LGT SNOW  27  24  89 N10       30.03F FOG     WCI  17
CRYSTAL        LGT SNOW  27  23  85 N12       30.01F VSB 1   WCI  17
BLAINE         LGT SNOW  28  27  93 N9        30.02F WCI  20
LAKEVILLE      LGT SNOW  27  25  93 N12       29.99F WCI  16
EDEN PRAIRIE   LGT SNOW  26  23  88 N12       30.00F FOG     WCI  16
SOUTH ST PAUL  LGT SNOW  28  26  91 N8        30.01F WCI  20
LAKE ELMO      LGT SNOW  28  27  93 N8        30.01F WCI  20
$$
MNZ001>005-007-008-013>017-022>024-027-028-270900-
   Northwest Minnesota

CITY           SKY/WX    TMP DP  RH WIND       PRES   REMARKS
BEMIDJI        CLOUDY    14  10  85 NW8       30.10F WCI   3
HALLOCK        LGT SNOW   7   3  85 CALM      30.18F
ROSEAU         FLURRIES  10   7  85 W3        30.14F
WARROAD        CLOUDY    10   5  79 SW3       30.14F
THIEF RVR FALL CLOUDY    10   9  92 CALM      30.15F
CROOKSTON      FLURRIES   9   5  85 W7        30.20S WCI  -3
FOSSTON        LGT SNOW   9   7  92 NW6       30.14S WCI  -1
DETROIT LAKES  LGT SNOW  10  10 100 NW7       30.14R WCI   0
MOORHEAD       PTCLDY     7   5  92 NW7       30.20R WCI  -5
PARK RAPIDS    CLOUDY    19  13  77 N8        30.09R WCI   9
MAHNOMEN       FLURRIES  11   9  90 NW7       30.14S WCI   0
$$
MNZ006-009>011-018-025>026-270900-
   North Central Minnesota

CITY           SKY/WX    TMP DP  RH WIND       PRES   REMARKS
BAUDETTE       CLOUDY    13   6  74 NW7       30.12F WCI   3
FLAG ISLAND    CLOUDY     9   3  78 W3        30.13F
INTL FALLS     FLURRIES  14   7  73 W6        30.11F WCI   5
WASKISH        CLOUDY    16  10  79 CALM      30.11F
BIG FORK       CLOUDY    18  10  73 CALM      30.09F
LONGVILLE      CLOUDY    19  16  86 N5        30.09R WCI  13
GRAND RAPIDS   CLOUDY    18  12  79 N7        30.07S WCI   8
CRANE LAKE     FLURRIES  16   9  73 N5        30.12F WCI   9
ORR            CLOUDY    16   9  73 CALM      30.06F
COOK           FLURRIES  16  10  79 NW6       30.08F WCI   7
WALKER         CLOUDY    17  11  77 NW3       30.09S
$$
MNZ012-019>021-037-270900-
   Northeast Minnesota

CITY           SKY/WX    TMP DP  RH WIND       PRES   REMARKS
DULUTH         CLOUDY    24  17  74 N10       30.02F WCI  14
ELY            CLOUDY    18  14  86 NW3       30.06F
HIBBING        CLOUDY    19  12  74 N9        30.06F WCI   8
EVELETH        CLOUDY    21  16  79 N5        30.06F WCI  15
DULUTH HARBOR  CLOUDY    28  21  74 N10       30.07S WCI  19
TWO HARBORS    CLOUDY    27  21  80 N6        30.02F WCI  20
GRAND MARAIS     N/A     27  18  69 N8G17     30.06F WCI  19
G MARAIS ARPRT CLOUDY    19  14  79 NW6       30.01F WCI  11
$$
MNZ029>031-032-039>041-046>048-054>057-064-270900-
   West Central Minnesota

CITY           SKY/WX    TMP DP  RH WIND       PRES   REMARKS
FERGUS FALLS   PTCLDY     9   3  78 N12       30.19S WCI  -6
WHEATON        MOCLDY     9   7  92 NW12      30.19S WCI  -6
MORRIS         CLOUDY    18  14  86 NW17      30.11F WCI   2
ALEXANDRIA     CLOUDY    21  16  81 N10       30.09S WCI  10
ELBOW LAKE     MOCLDY    12   8  87 NW15      30.13S WCI  -4
WADENA         CLOUDY    19  16  86 N8        30.09S WCI   9
GLENWOOD       CLOUDY    21  18  86 N12       30.08F WCI   9
APPLETON       CLOUDY    19  16  86 NW16      30.13S WCI   5
BENSON         CLOUDY    19  16  86 N14       30.10F WCI   6
ORTONVILLE     CLOUDY    14  10  85 NW14      30.14S WCI  -1
MADISON        LGT SNOW  21  19  93 NW15      30.13S WCI   8
WILLMAR        LGT SNOW  25  19  80 N12       30.08F WCI  14
$$
MNZ033>034-036-042>043-049>051-058-059-270900-
   Central Minnesota

CITY           SKY/WX    TMP DP  RH WIND       PRES   REMARKS
ST CLOUD       CLOUDY    25  17  72 N10       30.06F WCI  15
SAUK CENTRE    CLOUDY    22  16  79 N7        30.08F WCI  13
PAYNESVILLE    CLOUDY    20  16  84 NW8       30.07F WCI  10
AITKIN         CLOUDY    23  16  74 N6        30.07R WCI  16
PINE RIVER     CLOUDY    21  16  79 N6        30.12R WCI  14
BRAINERD       CLOUDY    21  14  74 N6        30.09R WCI  13
STAPLES        CLOUDY    19  16  86 N7        30.08F WCI  10
LONG PRAIRIE   CLOUDY    21  16  79 N7        30.08F WCI  13
LITTLE FALLS   CLOUDY    23  16  74 NW3       30.09F
LITCHFIELD     LGT SNOW  23  21  93 N13       30.05F WCI  11
BUFFALO        LGT SNOW  25  22  91 N10       30.04F WCI  14
MAPLE LAKE     LGT SNOW  25  23  93 NW12      30.05F WCI  14
$$
MNZ037-044-045-052-053-270900-
   East Central Minnesota

CITY           SKY/WX    TMP DP  RH WIND       PRES   REMARKS
PRINCETON      LGT SNOW  25  19  80 NW13      30.05F WCI  13
MORA           CLOUDY    23  18  80 N7        30.08R WCI  15
CAMBRIDGE      LGT SNOW  27  19  74 N9        30.03F WCI  17
RUSH CITY      CLOUDY    26  20  80 N10       30.06R WCI  16
MOOSE LAKE     CLOUDY    25  18  74 N7        30.04R WCI  17
HINCKLEY       CLOUDY    27  21  80 CALM      30.07R
CLOQUET        CLOUDY    23  16  74 NW10      30.03S WCI  12
MCGREGOR       CLOUDY    23  19  86 NW7       30.07R WCI  15
$$
MNZ071>073-080-081-089-090-097-098-270900-
   Southwest Minnesota

CITY           SKY/WX    TMP DP  RH WIND       PRES   REMARKS
MONTEVIDEO     LGT SNOW  19  19 100 N13G18    30.11S WCI   7
GRANITE FALLS  LGT SNOW  21  19  92 NW13      30.10S WCI   9
CANBY          LGT SNOW  19  17  92 NW13      30.13S WCI   5
MARSHALL       CLOUDY    19  14  79 N18       30.08S WCI   4
REDWOOD FALLS  LGT SNOW  24  21  88 N12       30.06S FOG     WCI  13
OLIVIA         LGT SNOW  23  21  93 N12       30.06S WCI  12
PIPESTONE      CLOUDY    19  18  93 N10G16    30.05S WCI   8
WINDOM         LGT SNOW  23  21  93 NW16G25   30.02R WCI  10
WORTHINGTON    CLOUDY    21 -24  12 N15       30.03S WCI   8
JACKSON        LGT SNOW  27  23  86 N10G16    30.01R WCI  17
TRACY          LGT SNOW  22  20  93 N15       30.07R WCI   8
SLAYTON        LGT SNOW  20  18  92 NW13G22   30.05R WCI   8
$$
MNZ065>067-074>077-082>085-091>093-270900-
   South Central Minnesota

CITY           SKY/WX    TMP DP  RH WIND       PRES   REMARKS
MANKATO        CLOUDY    27  21  80 N13       29.99S WCI  16
NEW ULM        LGT SNOW  25  23  93 N10G17    30.02S WCI  15
ST JAMES       LGT SNOW  27  25  93 NW16      30.02S WCI  14
FAIRMONT       CLOUDY    27  21  80 N15       29.99R WCI  15
GLENCOE        LGT SNOW  25  24  95 N14G20    30.02F WCI  14
FARIBAULT      LGT SNOW  28  27  93 N10       29.98S WCI  19
OWATONNA       LGT SNOW  28  27  93 N13       29.96S WCI  18
WASECA         LGT SNOW  28  27  93 VRB12     29.97F WCI  18
ALBERT LEA     LGT SNOW  28  28 100 N8        29.93F WCI  20
$$
MNZ078>079-086>088-094>096-270900-
   Southeast Minnesota

CITY           SKY/WX    TMP DP  RH WIND       PRES   REMARKS
ROCHESTER      LGT SNOW  30  28  92 N10       29.93S VSB 1   WCI  21
RED WING       SNOW      30  28  93 N6        29.97F VSB 1/2 WCI  24
STANTON        LGT SNOW  29  27  90 N10G17    29.97F WCI  20
DODGE CENTER   LGT SNOW  28  28 100 N9        29.93F WCI  20
WINONA         MIX PCPN  34  34 100 CALM      29.95S
AUSTIN         LGT SNOW  28  28 100 N7        29.92F WCI  21
PRESTON        MIX PCPN  30  29  97 N5        29.92S WCI  25
$$
ABBREVIATIONS USED IN REMARKS
   TC - TEMPERATURES IN CELSIUS
  WCI - WIND CHILL INDEX
   HX - HEAT INDEX
  VSB - VISIBILITY
$$



USA.gov is the U.S. government's official web portal to all federal, state and local government web resources and services.